QPF
0.05 0.04 0.03 0.03 0.02 0.00 0.00 0.01 0.02 0.03 0.04 0.04 0.05 0.04 0.04 0.05 0.07 0.13 0.03 0.03 0.03 0.01 0.00 0.00 0.00 0.00 0.01 0.02 0.01 0.00 0.00 0.00 0.00 0.00 0.00 0.00 0.00 0.00 0.00 0.00 0.00 0.00 0.00 0.00 0.00 0.00 0.00 0.00 0.00 0.00 0.00 0.00 0.00 0.00
0.07 0.05 0.05 0.03 0.02 0.01 0.00 0.00 0.02 0.04 0.05 0.06 0.05 0.04 0.05 0.07 0.08 0.14 0.06 0.01 0.03 0.03 0.00 0.00 0.00 0.00 0.00 0.00 0.01 0.00 0.00 0.00 0.00 0.00 0.00 0.00 0.00 0.00 0.00 0.00 0.00 0.00 0.00 0.00 0.00 0.00 0.00 0.00 0.00 0.00 0.00 0.00 0.00 0.00
0.06 0.06 0.06 0.05 0.03 0.02 0.01 0.00 0.02 0.03 0.04 0.03 0.04 0.04 0.05 0.05 0.06 0.12 0.06 0.03 0.03 0.02 0.01 0.00 0.00 0.00 0.00 0.00 0.01 0.01 0.00 0.00 0.00 0.00 0.00 0.00 0.00 0.00 0.00 0.00 0.00 0.00 0.00 0.00 0.00 0.00 0.00 0.00 0.00 0.00 0.00 0.00 0.00 0.00
0.05 0.04 0.05 0.04 0.03 0.01 0.00 0.00 0.01 0.03 0.03 0.03 0.05 0.06 0.05 0.04 0.04 0.12 0.07 0.04 0.04 0.00 0.00 0.00 0.00 0.00 0.00 0.00 0.00 0.00 0.00 0.00 0.00 0.00 0.00 0.00 0.00 0.00 0.00 0.00 0.00 0.00 0.00 0.00 0.00 0.00 0.00 0.00 0.00 0.00 0.00 0.00 0.00 0.00
0.05 0.05 0.04 0.04 0.02 0.01 0.00 0.00 0.02 0.03 0.03 0.04 0.06 0.06 0.04 0.03 0.08 0.12 0.04 0.02 0.04 0.01 0.00 0.00 0.00 0.00 0.00 0.00 0.00 0.00 0.00 0.00 0.00 0.00 0.00 0.00 0.00 0.00 0.00 0.00 0.00 0.00 0.00 0.00 0.00 0.00 0.00 0.00 0.00 0.00 0.00 0.00 0.00 0.00
0.05 0.05 0.05 0.04 0.02 0.01 0.00 0.01 0.03 0.03 0.03 0.04 0.05 0.04 0.03 0.11 0.13 0.08 0.01 0.00 0.01 0.02 0.01 0.00 0.00 0.00 0.01 0.01 0.00 0.00 0.00 0.00 0.00 0.00 0.00 0.00 0.00 0.00 0.00 0.00 0.00 0.00 0.00 0.00 0.00 0.00 0.00 0.00 0.00 0.00 0.00 0.00 0.00 0.00
0.07 0.07 0.05 0.03 0.01 0.01 0.01 0.02 0.04 0.05 0.04 0.04 0.03 0.03 0.08 0.11 0.07 0.02 0.01 0.05 0.01 0.02 0.02 0.00 0.00 0.00 0.01 0.07 0.04 0.03 0.01 0.01 0.00 0.00 0.00 0.00 0.00 0.00 0.00 0.00 0.00 0.00 0.00 0.00 0.00 0.00 0.00 0.00 0.00 0.00 0.00 0.00 0.00 0.00
0.08 0.05 0.03 0.01 0.01 0.02 0.03 0.04 0.06 0.09 0.07 0.05 0.03 0.05 0.08 0.07 0.05 0.02 0.00 0.05 0.07 0.06 0.03 0.01 0.00 0.00 0.00 0.04 0.08 0.06 0.02 0.01 0.00 0.00 0.00 0.00 0.00 0.00 0.00 0.00 0.00 0.00 0.00 0.00 0.00 0.00 0.00 0.00 0.00 0.00 0.00 0.00 0.00 0.00
0.07 0.02 0.01 0.01 0.02 0.02 0.03 0.06 0.10 0.08 0.06 0.05 0.07 0.05 0.04 0.02 0.01 0.00 0.00 0.02 0.03 0.04 0.02 0.01 0.00 0.00 0.00 0.02 0.05 0.06 0.02 0.00 0.00 0.00 0.00 0.00 0.00 0.00 0.00 0.00 0.00 0.00 0.00 0.00 0.00 0.00 0.00 0.00 0.00 0.00 0.00 0.00 0.00 0.00
0.04 0.01 0.00 0.02 0.03 0.02 0.02 0.01 0.03 0.07 0.06 0.05 0.04 0.03 0.01 0.00 0.00 0.01 0.02 0.03 0.02 0.00 0.00 0.00 0.00 0.00 0.00 0.00 0.02 0.05 0.01 0.00 0.00 0.00 0.00 0.00 0.00 0.00 0.00 0.00 0.00 0.00 0.00 0.00 0.00 0.00 0.00 0.00 0.00 0.00 0.00 0.00 0.00 0.00
0.04 0.02 0.02 0.02 0.07 0.09 0.08 0.05 0.04 0.06 0.04 0.03 0.03 0.01 0.00 0.00 0.01 0.03 0.01 0.02 0.01 0.00 0.00 0.00 0.00 0.00 0.01 0.02 0.00 0.02 0.03 0.01 0.00 0.00 0.00 0.00 0.00 0.00 0.00 0.00 0.00 0.00 0.00 0.00 0.00 0.00 0.00 0.00 0.00 0.00 0.00 0.00 0.00 0.00
0.04 0.02 0.02 0.02 0.04 0.05 0.02 0.03 0.05 0.02 0.02 0.04 0.02 0.00 0.00 0.00 0.00 0.00 0.01 0.00 0.00 0.00 0.00 0.00 0.00 0.01 0.01 0.03 0.04 0.02 0.03 0.02 0.02 0.00 0.00 0.00 0.00 0.00 0.00 0.00 0.00 0.00 0.00 0.00 0.00 0.00 0.00 0.00 0.00 0.00 0.00 0.00 0.00 0.00
0.02 0.02 0.02 0.02 0.02 0.02 0.00 0.01 0.05 0.04 0.03 0.03 0.02 0.01 0.02 0.01 0.00 0.00 0.00 0.00 0.00 0.00 0.00 0.00 0.01 0.01 0.01 0.01 0.03 0.02 0.01 0.00 0.00 0.00 0.00 0.00 0.00 0.00 0.00 0.00 0.00 0.00 0.00 0.00 0.00 0.00 0.00 0.00 0.00 0.00 0.00 0.00 0.00 0.00
0.01 0.01 0.01 0.02 0.02 0.03 0.02 0.01 0.01 0.03 0.03 0.01 0.00 0.01 0.00 0.00 0.00 0.00 0.00 0.00 0.00 0.00 0.00 0.00 0.01 0.01 0.01 0.02 0.02 0.01 0.00 0.00 0.00 0.00 0.00 0.00 0.00 0.00 0.00 0.00 0.00 0.00 0.00 0.00 0.00 0.00 0.00 0.00 0.00 0.00 0.00 0.00 0.00 0.00
0.02 0.02 0.02 0.01 0.02 0.03 0.02 0.01 0.02 0.03 0.04 0.01 0.00 0.00 0.00 0.00 0.00 0.00 0.00 0.00 0.00 0.01 0.01 0.01 0.01 0.01 0.01 0.05 0.02 0.01 0.00 0.00 0.00 0.00 0.00 0.00 0.00 0.00 0.00 0.00 0.00 0.00 0.00 0.00 0.00 0.00 0.00 0.00 0.00 0.00 0.00 0.00 0.00 0.00
0.03 0.02 0.01 0.00 0.01 0.02 0.03 0.04 0.08 0.05 0.02 0.01 0.00 0.00 0.00 0.00 0.00 0.00 0.00 0.00 0.01 0.01 0.03 0.02 0.03 0.03 0.05 0.02 0.02 0.01 0.00 0.00 0.00 0.00 0.00 0.00 0.00 0.00 0.00 0.00 0.00 0.00 0.00 0.00 0.00 0.00 0.00 0.00 0.00 0.00 0.00 0.00 0.00 0.00
0.04 0.00 0.00 0.01 0.02 0.03 0.03 0.03 0.03 0.02 0.01 0.00 0.00 0.00 0.00 0.00 0.00 0.00 0.00 0.00 0.02 0.03 0.03 0.04 0.04 0.03 0.02 0.01 0.01 0.00 0.00 0.00 0.00 0.00 0.00 0.00 0.00 0.00 0.00 0.00 0.00 0.00 0.00 0.00 0.00 0.00 0.00 0.00 0.00 0.00 0.00 0.00 0.00 0.00
0.01 0.00 0.01 0.03 0.06 0.04 0.02 0.02 0.00 0.00 0.00 0.00 0.00 0.00 0.00 0.00 0.00 0.00 0.00 0.01 0.01 0.03 0.01 0.01 0.00 0.00 0.00 0.00 0.00 0.00 0.00 0.00 0.00 0.00 0.00 0.00 0.00 0.00 0.00 0.00 0.00 0.00 0.00 0.00 0.00 0.00 0.00 0.00 0.00 0.00 0.00 0.00 0.00 0.00
0.01 0.02 0.02 0.04 0.01 0.00 0.00 0.00 0.00 0.00 0.00 0.00 0.00 0.00 0.00 0.00 0.00 0.00 0.01 0.03 0.02 0.01 0.01 0.00 0.00 0.00 0.00 0.00 0.01 0.00 0.00 0.00 0.00 0.00 0.00 0.00 0.00 0.00 0.00 0.00 0.00 0.00 0.00 0.00 0.00 0.00 0.00 0.00 0.00 0.00 0.00 0.00 0.00 0.00
0.04 0.03 0.02 0.00 0.00 0.00 0.00 0.00 0.00 0.00 0.00 0.00 0.00 0.00 0.00 0.00 0.00 0.00 0.00 0.00 0.00 0.01 0.00 0.00 0.00 0.00 0.00 0.00 0.00 0.00 0.00 0.00 0.00 0.00 0.00 0.00 0.00 0.00 0.00 0.00 0.00 0.00 0.00 0.00 0.00 0.00 0.00 0.00 0.00 0.00 0.00 0.00 0.00 0.00
0.01 0.01 0.00 0.00 0.00 0.00 0.00 0.00 0.00 0.00 0.00 0.00 0.00 0.00 0.01 0.00 0.00 0.00 0.00 0.00 0.00 0.00 0.00 0.00 0.00 0.00 0.00 0.00 0.00 0.00 0.00 0.00 0.00 0.00 0.00 0.00 0.00 0.00 0.00 0.00 0.00 0.00 0.00 0.00 0.00 0.00 0.00 0.00 0.00 0.00 0.00 0.00 0.00 0.00
0.00 0.00 0.00 0.00 0.00 0.00 0.00 0.00 0.00 0.00 0.00 0.00 0.00 0.00 0.00 0.00 0.00 0.00 0.00 0.00 0.00 0.00 0.00 0.00 0.00 0.00 0.00 0.00 0.00 0.00 0.00 0.00 0.00 0.00 0.00 0.00 0.00 0.00 0.00 0.00 0.00 0.00 0.00 0.00 0.00 0.00 0.00 0.00 0.00 0.00 0.00 0.00 0.00 0.00
0.00 0.00 0.00 0.00 0.00 0.00 0.00 0.00 0.00 0.00 0.00 0.00 0.00 0.00 0.00 0.00 0.00 0.00 0.00 0.00 0.00 0.00 0.00 0.00 0.00 0.00 0.00 0.00 0.00 0.00 0.00 0.00 0.00 0.00 0.00 0.00 0.00 0.00 0.00 0.00 0.00 0.00 0.00 0.00 0.00 0.00 0.00 0.00 0.00 0.00 0.00 0.00 0.00 0.00
0.00 0.00 0.00 0.00 0.00 0.00 0.00 0.00 0.00 0.00 0.00 0.00 0.00 0.00 0.00 0.00 0.00 0.00 0.00 0.00 0.00 0.00 0.00 0.00 0.00 0.00 0.00 0.00 0.00 0.00 0.00 0.00 0.00 0.00 0.00 0.00 0.00 0.00 0.00 0.00 0.00 0.00 0.00 0.00 0.00 0.00 0.00 0.00 0.00 0.00 0.00 0.00 0.00 0.00
0.00 0.00 0.00 0.00 0.00 0.00 0.00 0.00 0.00 0.00 0.00 0.00 0.00 0.00 0.00 0.00 0.00 0.00 0.00 0.00 0.00 0.00 0.00 0.00 0.00 0.00 0.00 0.00 0.00 0.00 0.00 0.00 0.00 0.00 0.00 0.00 0.00 0.00 0.00 0.00 0.00 0.00 0.00 0.00 0.00 0.00 0.00 0.00 0.00 0.00 0.00 0.00 0.00 0.00
0.00 0.00 0.00 0.00 0.00 0.00 0.00 0.00 0.00 0.00 0.00 0.00 0.00 0.00 0.00 0.00 0.00 0.00 0.00 0.00 0.00 0.00 0.00 0.00 0.00 0.00 0.00 0.00 0.00 0.00 0.00 0.00 0.00 0.00 0.00 0.00 0.00 0.00 0.00 0.00 0.00 0.00 0.00 0.00 0.00 0.00 0.00 0.00 0.00 0.00 0.00 0.00 0.00 0.00
0.00 0.00 0.00 0.00 0.00 0.00 0.00 0.00 0.00 0.00 0.00 0.00 0.00 0.00 0.00 0.00 0.00 0.00 0.00 0.00 0.00 0.00 0.00 0.00 0.00 0.00 0.00 0.00 0.00 0.00 0.00 0.00 0.00 0.00 0.00 0.00 0.00 0.00 0.00 0.00 0.00 0.00 0.00 0.00 0.00 0.00 0.00 0.00 0.00 0.00 0.00 0.00 0.00 0.00
0.00 0.00 0.00 0.00 0.00 0.00 0.00 0.00 0.00 0.00 0.00 0.00 0.00 0.00 0.00 0.00 0.00 0.00 0.00 0.00 0.00 0.00 0.00 0.00 0.00 0.00 0.00 0.00 0.00 0.00 0.00 0.00 0.00 0.00 0.00 0.00 0.00 0.00 0.00 0.00 0.00 0.00 0.00 0.00 0.00 0.00 0.00 0.00 0.00 0.00 0.00 0.00 0.00 0.00
0.00 0.00 0.00 0.00 0.00 0.00 0.00 0.00 0.00 0.00 0.00 0.00 0.00 0.00 0.00 0.00 0.00 0.00 0.00 0.00 0.00 0.00 0.00 0.00 0.01 0.01 0.00 0.00 0.00 0.00 0.00 0.00 0.00 0.00 0.00 0.00 0.00 0.00 0.00 0.00 0.00 0.00 0.00 0.00 0.00 0.00 0.00 0.00 0.00 0.00 0.00 0.00 0.00 0.00
0.00 0.00 0.00 0.00 0.00 0.00 0.00 0.00 0.00 0.00 0.00 0.00 0.00 0.00 0.00 0.00 0.00 0.00 0.00 0.00 0.00 0.00 0.00 0.00 0.00 0.00 0.01 0.00 0.00 0.00 0.00 0.00 0.00 0.00 0.00 0.00 0.00 0.00 0.00 0.00 0.00 0.00 0.00 0.00 0.00 0.00 0.00 0.00 0.00 0.00 0.00 0.00 0.00 0.00
0.00 0.00 0.00 0.00 0.00 0.00 0.00 0.00 0.00 0.00 0.00 0.00 0.00 0.00 0.00 0.00 0.00 0.00 0.00 0.00 0.00 0.00 0.00 0.00 0.00 0.00 0.00 0.00 0.00 0.00 0.00 0.00 0.00 0.00 0.00 0.00 0.00 0.00 0.00 0.00 0.00 0.00 0.00 0.00 0.00 0.00 0.00 0.00 0.00 0.00 0.00 0.00 0.00 0.00
0.00 0.00 0.00 0.00 0.00 0.00 0.00 0.00 0.00 0.00 0.00 0.00 0.00 0.00 0.00 0.00 0.00 0.00 0.00 0.00 0.00 0.00 0.00 0.00 0.00 0.00 0.00 0.00 0.00 0.00 0.00 0.00 0.00 0.00 0.00 0.00 0.00 0.00 0.00 0.00 0.00 0.00 0.00 0.00 0.00 0.00 0.00 0.00 0.00 0.00 0.00 0.00 0.00 0.00
0.00 0.00 0.00 0.00 0.00 0.00 0.00 0.00 0.00 0.00 0.00 0.00 0.00 0.00 0.00 0.00 0.00 0.00 0.00 0.00 0.00 0.00 0.00 0.00 0.00 0.00 0.00 0.00 0.00 0.00 0.00 0.00 0.00 0.00 0.00 0.00 0.00 0.00 0.00 0.00 0.00 0.00 0.00 0.00 0.00 0.00 0.00 0.00 0.00 0.00 0.00 0.00 0.00 0.00
MSLP
1008.56 1008.12 1007.75 1007.60 1007.23 1006.92 1006.93 1007.12 1007.18 1007.11 1007.10 1006.98 1006.79 1006.77 1006.66 1006.76 1006.95 1007.31 1007.38 1007.91 1008.12 1008.02 1007.25 1006.82 1005.98 1005.50 1005.52 1006.64 1006.59 1005.87 1006.40 1006.46 1007.50 1007.95 1007.74 1006.65 1005.88 1005.51 1006.38 1007.22 1007.82 1008.73 1009.95 1010.55 1010.28 1009.03 1007.12 1005.19 1005.71 1005.11 1003.77 1003.72 1004.25 1005.39
1007.85 1007.29 1006.97 1006.88 1006.75 1006.64 1006.52 1006.47 1006.49 1006.40 1006.47 1006.35 1006.23 1006.00 1005.87 1005.93 1006.06 1006.38 1006.54 1006.86 1007.21 1007.25 1007.16 1006.10 1005.68 1004.75 1004.63 1004.64 1005.99 1005.87 1005.11 1005.77 1006.45 1006.64 1006.45 1005.69 1005.71 1005.16 1004.81 1006.67 1007.02 1007.31 1006.29 1007.15 1007.25 1005.88 1004.03 1003.74 1003.22 1003.10 1003.23 1003.45 1004.15 1004.76
1007.17 1006.67 1006.27 1006.34 1006.11 1006.03 1005.94 1005.78 1005.65 1005.70 1005.71 1005.48 1005.39 1005.15 1005.11 1005.19 1005.32 1005.66 1006.01 1006.34 1006.73 1006.27 1006.37 1005.98 1004.56 1004.42 1004.38 1003.94 1004.30 1005.51 1004.99 1004.66 1004.68 1004.20 1004.43 1004.70 1004.64 1004.16 1004.48 1005.03 1005.55 1005.99 1005.71 1005.76 1005.87 1004.15 1003.51 1003.05 1003.10 1003.13 1003.31 1003.30 1003.65 1004.16
1006.35 1005.96 1005.70 1005.53 1005.47 1005.43 1005.28 1005.08 1005.07 1004.96 1005.05 1004.67 1004.51 1004.51 1004.62 1004.56 1004.67 1004.90 1005.39 1005.54 1005.96 1006.37 1005.99 1004.75 1003.67 1003.38 1003.40 1003.88 1003.84 1004.00 1004.77 1004.47 1004.28 1004.03 1004.07 1004.15 1004.69 1003.37 1003.39 1002.70 1003.61 1003.67 1004.70 1004.34 1004.02 1003.14 1002.93 1002.91 1002.66 1002.56 1003.13 1003.37 1003.67 1004.08
1005.51 1005.18 1004.98 1004.90 1004.86 1004.82 1004.67 1004.53 1004.44 1004.45 1004.41 1004.13 1003.87 1004.05 1004.00 1003.97 1004.07 1004.40 1004.66 1004.68 1004.85 1005.72 1005.11 1004.69 1003.80 1002.32 1002.59 1003.15 1003.43 1003.67 1004.01 1004.58 1004.62 1004.24 1004.15 1003.98 1003.63 1003.55 1003.14 1002.83 1002.36 1001.97 1001.88 1001.99 1001.48 1001.54 1001.07 1000.81 1000.62 1001.64 1002.60 1002.95 1003.36 1003.86
1004.58 1004.36 1004.25 1004.23 1004.27 1004.27 1004.14 1003.92 1003.93 1004.01 1003.80 1003.56 1003.51 1003.49 1003.45 1003.48 1003.69 1004.40 1004.33 1003.57 1003.78 1004.55 1004.93 1004.40 1003.02 1002.34 1002.09 1002.27 1002.83 1003.26 1003.31 1004.13 1004.24 1003.64 1003.46 1002.99 1002.54 1002.66 1002.82 1001.65 1000.28 1000.07 1000.03 999.37 999.93 999.60 999.81 999.90 999.93 1000.48 1001.34 1002.23 1002.75 1003.30
1003.71 1003.56 1003.50 1003.60 1003.62 1003.58 1003.54 1003.47 1003.42 1003.36 1003.23 1003.01 1003.04 1002.97 1003.01 1003.09 1003.57 1003.74 1003.42 1003.12 1003.12 1003.91 1004.38 1003.85 1002.91 1001.95 1001.79 1001.94 1002.25 1002.38 1002.50 1002.74 1003.11 1003.02 1002.47 1002.52 1002.46 1002.54 1001.95 1000.47 999.72 999.16 999.03 999.14 999.07 999.41 1000.03 999.80 999.71 1000.10 1000.45 1001.24 1002.13 1002.84
1002.91 1002.73 1002.79 1002.88 1002.87 1002.91 1002.96 1002.91 1002.86 1002.81 1002.67 1002.66 1002.47 1002.45 1002.52 1002.63 1002.97 1003.14 1002.70 1002.79 1002.90 1003.11 1003.63 1003.33 1002.54 1002.08 1001.40 1001.35 1001.28 1001.36 1001.63 1001.97 1001.71 1002.00 1001.98 1001.90 1002.37 1002.55 1000.92 998.74 998.91 998.47 998.41 998.78 998.96 998.57 998.37 998.62 999.50 1000.11 1000.84 1001.48 1002.24 1002.75
1002.08 1002.11 1002.13 1002.21 1002.36 1002.38 1002.41 1002.37 1002.31 1002.31 1002.25 1002.22 1002.08 1002.05 1002.39 1002.63 1002.84 1002.28 1002.00 1002.18 1002.77 1003.47 1002.46 1002.51 1002.13 1001.36 1000.59 1000.61 1000.76 1001.04 1001.15 1001.78 1001.73 1001.18 1001.18 1000.97 1000.83 1000.11 998.37 998.09 997.62 998.12 998.17 998.05 998.55 998.92 999.09 999.12 999.45 1000.05 1000.83 1001.60 1001.93 1002.01
1001.59 1001.48 1001.58 1001.72 1001.80 1001.88 1001.90 1001.88 1001.85 1001.91 1002.06 1002.04 1002.10 1002.24 1002.41 1002.12 1001.99 1001.98 1002.36 1002.66 1002.79 1003.06 1002.90 1002.18 1001.75 1001.64 1000.96 1000.55 1000.54 1000.91 1001.00 1001.36 1001.12 1000.63 1000.41 999.93 998.25 997.50 997.20 996.97 996.54 996.72 996.57 997.29 998.03 998.80 999.11 999.28 999.60 1000.20 1000.53 1000.62 1000.75 1001.10
1000.85 1001.02 1001.13 1001.28 1001.37 1001.47 1001.55 1001.53 1001.57 1001.65 1001.54 1002.08 1001.99 1002.07 1002.16 1001.95 1002.08 1002.16 1002.09 1002.14 1002.02 1002.33 1001.67 1000.72 1000.55 1000.89 1000.79 1000.78 1000.56 1000.64 1000.68 1000.73 999.82 999.67 999.68 998.57 995.99 995.38 996.28 996.52 996.48 996.24 996.39 996.85 997.01 997.04 997.39 997.77 998.36 999.38 1000.00 1000.33 1000.72 1000.95
1000.28 1000.55 1000.60 1000.81 1001.02 1001.10 1001.12 1001.13 1001.34 1001.69 1001.79 1001.86 1001.79 1001.91 1002.07 1002.10 1002.11 1002.05 1001.28 1001.11 1000.87 1000.33 999.85 999.36 999.39 999.59 1000.43 1000.36 1000.54 1000.60 1000.58 1000.46 999.60 998.94 998.70 996.69 994.16 993.78 994.45 995.30 995.36 995.63 995.68 995.86 996.36 996.86 997.18 997.52 997.75 998.19 998.77 999.43 999.92 1000.14
999.81 1000.05 1000.20 1000.36 1000.58 1000.72 1000.83 1000.99 1001.16 1001.39 1001.54 1001.69 1001.99 1001.63 1001.35 1001.63 1001.61 1001.09 1000.22 999.79 999.78 999.06 998.68 998.07 998.61 999.38 1000.07 1000.17 1000.31 1000.27 1000.19 999.77 998.88 998.82 997.41 995.58 993.89 992.78 992.88 993.36 993.76 994.07 994.24 994.60 995.06 995.87 996.48 996.81 997.05 997.58 998.11 998.55 999.17 999.98
999.19 999.35 999.61 999.82 1000.09 1000.40 1000.71 1000.83 1001.04 1001.29 1001.67 1001.93 1001.76 1001.35 1001.13 1000.68 1000.21 999.43 998.95 998.61 998.17 998.34 998.09 997.70 998.02 998.52 999.00 999.49 999.65 999.54 999.16 999.17 998.89 998.03 996.45 994.94 993.43 992.26 991.15 991.40 991.92 992.32 992.99 993.44 993.95 994.66 995.33 996.15 996.76 996.91 997.19 997.81 998.60 999.63
998.57 998.74 998.94 999.33 999.54 999.97 1000.43 1000.72 1001.00 1001.34 1001.88 1002.01 1001.35 1000.68 1000.27 999.64 999.25 998.84 998.41 998.19 997.59 997.26 997.24 997.28 997.64 997.86 998.20 998.50 998.55 998.73 998.89 998.50 997.71 997.14 995.88 994.18 993.23 992.97 992.86 992.78 992.79 992.88 993.07 993.30 993.42 993.85 994.29 994.87 995.64 996.39 996.95 997.29 997.88 998.57
997.59 997.98 998.23 998.58 999.00 999.55 1000.06 1000.62 1001.07 1001.56 1001.82 1001.84 1000.86 1000.17 999.82 999.72 999.01 998.35 997.84 997.15 996.71 996.51 996.41 996.75 997.14 997.39 997.45 997.63 997.72 997.86 997.93 997.12 996.38 995.99 995.31 994.55 993.85 993.28 993.11 993.07 992.65 992.63 992.41 992.34 992.46 992.61 993.09 993.75 994.45 995.18 996.10 996.67 997.53 998.11
996.87 996.86 997.38 997.89 998.65 999.39 1000.11 1000.76 1001.12 1001.21 1001.48 1000.89 1000.12 999.79 999.53 999.27 998.76 998.08 997.26 996.49 996.23 995.98 995.97 996.34 996.65 996.88 997.04 997.14 997.41 997.33 996.82 996.51 996.16 995.82 995.14 994.57 993.63 993.01 993.08 992.99 992.76 992.50 992.43 992.21 992.10 992.36 992.76 993.09 993.93 994.89 995.80 996.30 996.80 997.79
995.49 995.65 995.91 996.30 996.78 997.97 999.23 1000.25 1000.58 1000.81 1000.62 1000.11 999.89 999.33 999.17 998.47 997.93 997.64 997.23 996.31 995.65 995.56 996.05 995.87 996.41 996.73 996.82 996.76 996.79 996.75 996.69 996.34 996.15 996.03 995.20 994.04 993.24 992.69 992.79 992.79 992.69 992.35 992.00 992.22 992.36 992.67 993.05 993.51 994.15 994.71 995.33 996.03 997.04 997.85
994.45 994.15 993.98 993.96 994.83 996.10 997.92 999.61 1000.05 1000.07 999.77 999.54 999.17 999.01 998.67 997.96 997.62 997.27 996.86 996.68 996.25 996.30 996.33 996.74 996.59 996.71 996.71 996.52 996.52 996.15 996.63 996.57 996.19 995.77 994.85 994.06 993.42 993.24 993.19 993.02 992.32 991.88 992.17 992.63 992.87 993.00 993.25 993.36 993.83 994.47 995.15 995.97 996.89 997.84
991.74 991.77 992.28 992.75 993.60 995.60 997.75 999.19 999.38 999.50 999.31 998.74 998.57 998.48 997.98 997.63 997.42 997.21 997.01 997.07 996.98 997.05 997.13 997.17 996.89 996.68 996.47 996.50 996.18 995.55 995.71 995.88 995.79 995.54 994.95 994.21 993.74 993.29 993.41 993.42 992.60 992.34 992.96 993.16 993.11 993.57 993.88 994.11 994.58 994.87 995.38 996.13 996.89 997.93
992.53 992.88 993.27 993.62 995.11 995.91 997.21 998.12 998.51 998.30 998.29 998.31 997.83 997.89 997.88 997.59 997.33 997.37 997.45 997.63 997.65 997.60 997.34 997.02 996.79 996.56 996.47 996.42 996.10 996.05 996.07 996.05 995.88 995.84 995.45 994.64 993.58 993.23 993.21 993.53 992.77 993.07 993.51 993.56 993.68 994.01 994.13 994.55 994.80 994.97 995.63 996.51 997.08 997.78
993.37 993.56 994.20 994.72 995.72 996.54 997.00 997.22 997.21 997.59 998.04 997.94 997.94 998.02 998.06 997.77 997.44 997.58 997.72 997.91 997.60 996.93 996.74 996.53 996.37 996.32 996.52 996.56 996.23 996.07 995.80 995.59 995.62 995.37 995.07 994.92 994.22 993.82 993.63 993.33 993.09 993.61 993.83 993.74 993.94 994.33 994.80 995.17 995.37 995.71 996.17 996.99 997.62 998.53
993.96 994.52 995.06 995.51 996.10 996.76 997.37 996.94 997.03 997.39 997.69 997.71 997.88 998.19 998.21 997.97 997.70 997.53 997.56 997.32 996.91 996.12 995.83 995.90 995.86 995.79 995.85 995.79 995.75 995.75 995.71 995.37 995.04 994.81 994.69 994.32 994.26 993.89 993.64 993.66 993.39 993.54 994.02 994.14 994.12 994.87 995.47 995.67 996.23 996.37 996.93 997.59 998.35 999.53
994.94 995.36 995.85 996.38 996.86 997.19 997.08 997.03 997.09 997.36 997.29 997.43 997.61 998.15 998.06 997.96 997.75 997.45 997.23 996.91 996.39 996.00 995.87 995.41 995.58 995.74 995.82 995.76 995.51 995.22 995.13 995.08 995.15 994.68 993.97 993.47 993.27 993.25 993.09 993.08 993.20 993.52 993.85 994.44 994.90 995.40 996.11 996.39 996.85 996.95 997.41 998.07 999.30 999.92
995.52 996.51 996.52 997.01 997.16 997.13 997.07 997.23 997.22 997.21 997.18 997.20 997.72 998.37 998.32 998.16 997.84 997.45 996.60 996.30 996.23 995.68 995.26 995.24 995.41 995.42 995.33 994.89 994.64 994.60 994.65 994.63 994.62 994.47 994.03 993.69 993.61 993.85 994.17 993.27 993.89 994.06 994.24 994.72 995.43 995.69 996.51 996.63 997.22 997.41 998.25 998.62 999.33 1000.21
995.72 996.40 996.60 996.72 996.96 996.84 996.51 996.59 996.63 996.90 997.19 997.49 997.69 997.76 997.70 997.73 997.76 997.11 996.07 995.21 995.03 994.62 994.37 994.12 994.07 994.39 994.39 994.39 994.40 994.14 994.05 994.00 994.04 994.07 993.69 993.35 993.43 993.67 993.73 993.99 994.51 994.70 994.65 994.82 995.19 995.70 996.40 996.73 997.13 998.18 999.00 999.02 999.31 1000.06
995.90 996.02 996.05 996.07 996.22 996.26 996.35 996.37 996.47 996.66 996.99 997.35 997.43 997.47 997.48 997.48 996.92 995.73 994.58 994.15 994.04 993.64 993.65 993.71 993.90 994.01 993.95 993.79 993.69 993.47 993.28 993.69 993.50 993.31 993.19 993.23 993.14 993.35 993.69 994.21 994.23 994.19 994.44 994.86 994.97 995.44 995.92 996.79 997.48 998.33 999.03 999.35 999.67 1000.10
995.45 995.49 995.47 995.90 995.97 996.02 996.07 996.05 996.10 996.22 996.32 996.35 996.69 996.71 996.46 996.12 995.29 994.25 993.63 993.09 992.91 992.82 992.81 992.78 992.94 992.94 992.98 993.01 992.89 992.89 992.72 992.94 993.40 993.40 993.42 993.12 992.94 993.13 993.41 993.69 993.57 993.63 993.96 994.48 994.87 995.17 995.97 996.51 997.40 997.91 998.39 999.37 1000.15 1000.69
995.31 995.10 995.23 995.55 995.63 995.87 995.93 995.91 995.83 995.64 995.50 995.85 995.90 995.66 995.30 994.65 993.78 993.32 992.97 992.65 992.52 992.73 992.80 992.65 992.13 991.85 991.82 991.90 992.06 992.16 992.25 992.39 992.91 993.33 993.29 993.22 993.42 993.32 993.15 993.51 993.62 993.69 993.74 994.43 994.63 994.97 995.64 996.25 997.28 997.85 998.48 999.15 1000.36 1001.16
995.45 995.19 995.25 995.44 995.80 995.98 995.38 995.33 995.37 995.18 995.18 995.10 994.98 994.69 994.24 993.49 992.91 992.56 992.42 992.27 992.21 991.85 991.51 991.60 991.43 991.52 991.68 991.65 991.56 991.71 991.78 991.64 991.63 991.87 992.16 992.54 992.75 992.84 993.29 993.67 993.80 993.87 994.22 994.90 994.84 995.35 996.32 996.92 997.78 998.31 999.07 999.82 1000.76 1001.73
995.19 995.14 995.09 995.16 995.31 995.27 995.17 995.23 995.25 995.25 995.13 994.93 994.64 994.59 993.68 993.11 992.20 991.46 991.14 990.74 990.74 990.76 990.96 990.89 990.71 990.41 990.75 990.73 990.74 990.86 991.04 991.11 991.11 991.05 990.90 991.28 991.93 992.30 992.58 992.81 993.02 993.52 994.12 994.59 994.55 995.03 996.02 996.70 997.43 997.89 998.88 999.51 1000.11 1001.04
995.07 995.02 995.11 995.09 995.12 995.26 995.25 995.43 995.37 995.31 995.00 994.89 994.41 994.06 993.59 993.23 992.56 990.97 989.96 990.01 990.33 990.55 990.38 990.27 990.09 989.55 989.40 989.40 989.62 989.74 989.43 989.45 990.07 990.32 990.65 990.75 991.02 991.51 992.13 992.61 993.11 993.41 993.71 994.04 994.15 994.80 995.65 996.52 997.12 997.62 998.56 999.64 1000.54 1001.03
995.09 995.14 995.16 995.25 995.19 995.52 995.67 995.82 995.67 995.54 995.21 994.93 994.37 993.96 993.53 993.19 992.39 990.98 990.35 990.24 990.25 990.09 989.93 989.58 989.40 989.13 988.90 988.86 988.89 989.02 989.08 988.90 989.07 989.17 989.54 990.29 991.12 991.58 991.76 992.19 992.57 993.15 993.57 993.95 994.24 994.89 995.61 996.68 997.23 997.80 998.86 999.69 1000.29 1001.10
Thickness
5312 5320 5328 5329 5334 5336 5338 5338 5341 5343 5345 5346 5347 5349 5354 5358 5362 5363 5370 5371 5373 5369 5389 5402 5423 5431 5437 5425 5443 5466 5470 5468 5469 5472 5500 5532 5537 5562 5562 5564 5566 5573 5563 5566 5565 5588 5610 5647 5648 5653 5675 5678 5677 5669
5305 5314 5323 5324 5327 5328 5331 5334 5336 5339 5339 5339 5341 5347 5352 5356 5360 5363 5368 5371 5373 5374 5380 5398 5410 5427 5436 5443 5435 5448 5467 5462 5468 5481 5500 5528 5526 5529 5569 5549 5558 5577 5592 5589 5600 5614 5654 5660 5670 5669 5668 5674 5672 5669
5299 5306 5313 5315 5320 5323 5326 5330 5334 5336 5336 5337 5341 5347 5351 5355 5359 5361 5364 5367 5369 5378 5379 5387 5409 5419 5422 5439 5446 5436 5454 5472 5483 5511 5522 5523 5529 5533 5554 5555 5564 5568 5578 5593 5606 5631 5640 5654 5658 5660 5664 5672 5672 5672
5294 5300 5306 5311 5314 5318 5321 5325 5328 5332 5332 5337 5342 5346 5349 5354 5357 5360 5361 5366 5368 5365 5374 5393 5407 5414 5424 5426 5436 5445 5450 5461 5480 5495 5501 5504 5507 5537 5558 5580 5577 5581 5581 5585 5601 5625 5641 5646 5651 5659 5659 5663 5665 5664
5290 5296 5302 5305 5309 5312 5316 5318 5323 5327 5329 5335 5341 5343 5347 5352 5356 5357 5359 5365 5369 5367 5380 5385 5399 5419 5421 5423 5430 5439 5445 5452 5462 5477 5479 5498 5507 5526 5521 5546 5560 5570 5590 5608 5614 5632 5650 5661 5673 5661 5657 5658 5658 5659
5289 5295 5298 5301 5304 5306 5310 5314 5318 5321 5326 5333 5338 5342 5346 5350 5351 5349 5355 5368 5372 5371 5372 5387 5399 5406 5417 5425 5430 5439 5448 5449 5456 5470 5483 5498 5508 5522 5506 5538 5581 5582 5594 5625 5627 5645 5652 5664 5664 5660 5659 5653 5655 5656
5289 5293 5296 5298 5300 5304 5307 5310 5314 5318 5325 5332 5335 5340 5343 5346 5346 5349 5356 5366 5370 5369 5371 5382 5390 5405 5412 5420 5428 5438 5446 5453 5456 5465 5475 5488 5504 5506 5504 5550 5577 5581 5597 5609 5624 5630 5634 5646 5653 5647 5654 5655 5653 5651
5289 5293 5295 5297 5300 5303 5304 5308 5312 5318 5324 5329 5335 5338 5341 5344 5346 5348 5359 5362 5367 5371 5372 5379 5390 5400 5412 5419 5433 5441 5446 5448 5458 5466 5467 5488 5488 5483 5489 5557 5571 5576 5590 5600 5612 5626 5639 5644 5642 5641 5637 5639 5642 5644
5289 5292 5295 5297 5299 5301 5303 5306 5312 5318 5324 5327 5332 5336 5336 5337 5340 5350 5357 5360 5360 5359 5373 5379 5390 5392 5417 5425 5423 5434 5442 5441 5448 5463 5472 5484 5494 5494 5531 5544 5565 5562 5577 5597 5601 5605 5617 5628 5630 5630 5626 5628 5636 5645
5288 5292 5295 5297 5298 5300 5302 5307 5313 5318 5321 5325 5328 5331 5330 5337 5344 5348 5347 5348 5352 5350 5355 5372 5384 5394 5411 5418 5424 5432 5426 5439 5449 5456 5465 5469 5498 5533 5537 5542 5559 5568 5581 5585 5591 5591 5601 5615 5620 5620 5624 5631 5640 5643
5289 5291 5293 5295 5297 5299 5303 5309 5313 5317 5322 5320 5325 5329 5330 5336 5338 5342 5346 5350 5354 5352 5360 5384 5393 5396 5401 5410 5419 5424 5432 5432 5459 5469 5465 5475 5512 5544 5539 5536 5545 5557 5566 5571 5585 5600 5610 5618 5622 5619 5618 5622 5624 5629
5289 5290 5293 5294 5295 5298 5303 5308 5311 5312 5315 5319 5324 5327 5329 5331 5334 5337 5351 5353 5355 5364 5374 5394 5398 5397 5399 5406 5413 5417 5428 5428 5452 5455 5460 5484 5534 5549 5551 5547 5553 5556 5563 5571 5575 5585 5595 5605 5615 5620 5623 5622 5620 5625
5288 5289 5291 5293 5296 5299 5302 5305 5308 5311 5314 5317 5318 5327 5331 5333 5338 5349 5353 5371 5368 5383 5387 5403 5404 5396 5395 5401 5409 5413 5422 5437 5438 5449 5472 5495 5515 5548 5556 5558 5561 5566 5572 5578 5583 5581 5580 5588 5599 5605 5609 5613 5613 5612
5288 5290 5291 5294 5296 5298 5300 5303 5306 5308 5309 5312 5319 5331 5333 5341 5331 5344 5362 5373 5379 5383 5385 5400 5404 5404 5400 5405 5408 5419 5429 5431 5446 5463 5475 5497 5517 5544 5566 5570 5574 5577 5577 5581 5584 5585 5584 5575 5580 5589 5599 5604 5601 5599
5289 5291 5292 5295 5297 5298 5299 5300 5302 5305 5306 5309 5322 5333 5338 5339 5343 5361 5364 5366 5373 5385 5394 5400 5401 5406 5406 5409 5410 5420 5431 5438 5452 5460 5470 5499 5516 5521 5530 5540 5548 5561 5563 5566 5578 5581 5584 5584 5583 5580 5582 5587 5590 5595
5292 5293 5296 5297 5297 5297 5298 5298 5298 5298 5301 5306 5321 5334 5336 5341 5342 5362 5374 5379 5385 5391 5398 5399 5400 5406 5411 5413 5419 5425 5440 5445 5455 5451 5469 5489 5505 5517 5523 5531 5546 5555 5562 5570 5578 5586 5586 5582 5586 5588 5584 5583 5584 5590
5296 5300 5301 5299 5297 5294 5293 5292 5295 5299 5302 5315 5329 5332 5339 5340 5348 5363 5374 5385 5386 5397 5403 5401 5409 5409 5408 5414 5413 5414 5434 5447 5455 5454 5463 5478 5497 5510 5516 5526 5535 5547 5555 5566 5574 5579 5581 5584 5578 5576 5576 5578 5583 5583
5306 5307 5308 5309 5310 5304 5296 5291 5296 5300 5313 5324 5331 5337 5337 5345 5354 5361 5369 5383 5391 5397 5400 5407 5407 5407 5405 5414 5420 5419 5421 5435 5438 5449 5461 5480 5496 5509 5517 5524 5533 5543 5555 5562 5565 5568 5569 5572 5575 5580 5576 5569 5568 5571
5313 5318 5322 5325 5322 5314 5305 5295 5300 5312 5322 5326 5334 5332 5340 5352 5355 5365 5374 5377 5385 5389 5395 5388 5398 5402 5409 5409 5417 5428 5424 5427 5436 5449 5463 5477 5489 5500 5508 5519 5534 5543 5547 5550 5551 5558 5562 5570 5573 5569 5567 5570 5572 5570
5333 5334 5330 5332 5330 5315 5308 5302 5306 5307 5314 5332 5333 5338 5346 5354 5358 5363 5366 5369 5375 5379 5380 5383 5383 5400 5409 5410 5415 5427 5430 5431 5435 5446 5461 5476 5483 5493 5500 5508 5523 5533 5534 5539 5546 5549 5552 5557 5559 5563 5567 5568 5571 5568
5330 5329 5327 5326 5315 5309 5308 5314 5316 5319 5324 5330 5340 5342 5348 5356 5363 5368 5369 5362 5358 5366 5382 5384 5390 5393 5400 5405 5412 5416 5419 5424 5433 5439 5450 5462 5479 5489 5498 5504 5517 5524 5530 5535 5540 5544 5550 5552 5554 5562 5562 5560 5563 5565
5325 5325 5321 5321 5318 5312 5311 5315 5323 5327 5333 5331 5340 5340 5346 5348 5357 5361 5365 5365 5363 5382 5381 5385 5389 5395 5397 5401 5406 5411 5419 5427 5431 5438 5452 5459 5474 5485 5494 5504 5516 5516 5520 5530 5535 5536 5537 5541 5547 5552 5555 5555 5556 5554
5326 5322 5319 5319 5311 5309 5322 5326 5330 5332 5333 5341 5339 5322 5319 5335 5349 5352 5358 5365 5372 5380 5386 5387 5390 5396 5400 5404 5406 5409 5414 5423 5429 5439 5447 5456 5464 5476 5485 5493 5505 5510 5513 5519 5527 5527 5530 5537 5539 5543 5545 5545 5545 5540
5323 5322 5323 5317 5316 5321 5323 5326 5328 5322 5332 5329 5342 5327 5331 5330 5349 5356 5366 5366 5371 5374 5378 5387 5389 5393 5394 5398 5404 5410 5415 5421 5425 5432 5444 5458 5466 5474 5481 5489 5499 5504 5509 5511 5517 5519 5520 5524 5530 5534 5537 5536 5530 5532
5323 5315 5319 5313 5312 5324 5328 5327 5331 5340 5337 5343 5333 5320 5327 5336 5345 5347 5365 5365 5364 5369 5378 5380 5383 5389 5396 5405 5410 5411 5416 5422 5426 5434 5443 5452 5461 5467 5470 5483 5486 5493 5499 5504 5506 5512 5512 5517 5519 5526 5523 5527 5527 5525
5321 5309 5312 5312 5317 5317 5339 5331 5332 5340 5339 5337 5342 5328 5337 5344 5340 5339 5356 5366 5366 5371 5379 5386 5391 5392 5395 5402 5409 5413 5415 5422 5428 5434 5443 5452 5459 5466 5471 5475 5477 5480 5488 5497 5503 5507 5508 5512 5515 5512 5510 5521 5526 5523
5309 5312 5328 5326 5327 5329 5328 5331 5331 5335 5336 5319 5318 5335 5336 5308 5323 5348 5355 5357 5364 5370 5375 5379 5381 5385 5393 5397 5402 5410 5416 5416 5428 5436 5444 5450 5455 5459 5464 5467 5474 5483 5486 5491 5498 5502 5505 5505 5506 5505 5506 5513 5517 5519
5325 5330 5336 5331 5333 5329 5329 5337 5339 5337 5332 5331 5333 5337 5336 5340 5341 5351 5352 5362 5366 5371 5374 5378 5380 5384 5389 5393 5398 5403 5411 5416 5419 5427 5434 5445 5450 5454 5460 5466 5476 5482 5487 5490 5494 5497 5497 5501 5499 5502 5507 5506 5507 5508
5331 5336 5335 5332 5338 5331 5327 5337 5336 5338 5338 5334 5338 5337 5339 5344 5349 5352 5355 5358 5363 5362 5365 5369 5376 5380 5383 5386 5390 5395 5404 5413 5418 5425 5434 5439 5445 5453 5457 5461 5465 5473 5483 5483 5490 5495 5496 5496 5493 5497 5501 5502 5499 5497
5326 5334 5334 5329 5317 5322 5337 5334 5337 5337 5334 5335 5336 5338 5339 5343 5345 5349 5356 5359 5361 5366 5372 5371 5374 5374 5375 5377 5383 5387 5396 5410 5424 5431 5435 5437 5443 5450 5451 5454 5460 5466 5473 5473 5481 5486 5486 5487 5486 5489 5489 5490 5487 5487
5325 5331 5334 5336 5329 5330 5333 5329 5329 5330 5332 5334 5334 5337 5350 5349 5353 5359 5364 5371 5372 5372 5372 5373 5376 5380 5379 5382 5384 5387 5393 5402 5413 5426 5437 5440 5442 5447 5452 5457 5462 5465 5469 5471 5479 5483 5482 5481 5481 5488 5487 5488 5490 5491
5326 5329 5331 5334 5327 5318 5324 5328 5332 5332 5335 5334 5335 5336 5341 5346 5354 5367 5372 5370 5370 5370 5374 5377 5379 5388 5391 5394 5393 5395 5404 5409 5411 5421 5429 5440 5447 5449 5451 5453 5457 5462 5468 5471 5478 5480 5480 5479 5481 5484 5482 5480 5479 5483
5324 5327 5329 5327 5333 5319 5320 5324 5322 5321 5319 5323 5329 5338 5342 5348 5358 5368 5367 5368 5371 5374 5377 5381 5384 5388 5391 5393 5397 5400 5404 5411 5419 5429 5434 5437 5439 5445 5451 5453 5456 5460 5464 5469 5474 5474 5474 5471 5474 5475 5471 5471 5474 5474